GFSFLT1_prec_precacc_114.txt.gz
Total_Precipitation_Accumulation
0.03 0.08 0.04 0.04 0.17 0.43 0.85 0.92 1.07 1.07 0.77 0.64 0.61 0.71 0.75 0.78 0.68 0.47 0.57 0.55 0.35 0.22 0.31 0.60 0.53 0.46 0.33 0.23 0.39 0.48 0.38 0.44
0.04 0.07 0.08 0.06 0.12 0.37 0.48 0.71 0.88 0.60 0.38 0.33 0.37 0.42 0.50 0.78 0.77 0.49 0.53 0.68 0.50 0.32 0.25 0.42 0.80 0.63 0.40 0.23 0.33 0.50 0.60 0.43
0.01 0.03 0.05 0.08 0.16 0.38 0.47 0.32 0.27 0.28 0.28 0.16 0.12 0.17 0.29 0.63 0.92 0.60 0.63 0.69 0.59 0.51 0.26 0.21 0.40 0.70 0.72 0.39 0.29 0.47 0.52 0.49
0.02 0.04 0.04 0.06 0.08 0.12 0.24 0.13 0.07 0.07 0.10 0.13 0.11 0.16 0.32 1.03 1.33 0.98 0.70 0.69 0.61 0.60 0.47 0.37 0.31 0.51 0.66 0.59 0.32 0.27 0.57 0.51
0.00 0.00 0.00 0.03 0.03 0.05 0.23 0.13 0.06 0.05 0.05 0.05 0.07 0.11 0.16 0.50 1.03 0.94 0.73 0.92 0.77 0.56 0.67 0.67 0.45 0.41 0.52 0.52 0.40 0.33 0.76 0.63
0.01 0.01 0.00 0.00 0.06 0.08 0.20 0.16 0.16 0.08 0.11 0.15 0.26 0.20 0.14 0.23 0.89 1.22 0.97 0.96 1.03 0.87 0.75 0.80 0.65 0.48 0.55 0.74 0.63 0.57 0.74 0.51
0.04 0.02 0.02 0.02 0.02 0.11 0.19 0.15 0.21 0.23 0.27 0.22 0.22 0.29 0.18 0.18 0.51 1.06 1.34 1.17 1.18 1.14 1.07 0.95 0.76 0.59 0.53 0.66 0.75 0.83 0.80 0.74
0.09 0.06 0.06 0.07 0.05 0.17 0.19 0.16 0.20 0.23 0.30 0.16 0.19 0.31 0.39 0.41 0.43 0.79 1.27 1.56 1.37 0.91 0.91 0.89 0.81 0.64 0.59 0.56 0.66 0.60 0.61 0.59
0.16 0.16 0.18 0.21 0.20 0.22 0.34 0.30 0.36 0.28 0.19 0.25 0.31 0.37 0.44 0.54 0.46 0.67 1.18 1.08 0.91 0.67 0.83 0.97 0.92 0.83 0.73 0.57 0.60 0.53 0.49 0.52
0.19 0.20 0.24 0.28 0.30 0.29 0.31 0.28 0.48 0.47 0.42 0.47 0.40 0.33 0.30 0.35 0.40 0.37 0.61 0.79 0.86 0.77 0.90 0.94 0.94 0.83 0.76 0.73 0.63 0.59 0.55 0.54
0.27 0.27 0.31 0.31 0.32 0.34 0.47 0.31 0.24 0.38 0.56 0.55 0.36 0.40 0.49 0.34 0.31 0.30 0.43 0.70 0.76 0.85 0.91 0.87 0.87 0.90 0.88 0.82 0.75 0.70 0.64 0.59
0.52 0.60 0.50 0.54 0.52 0.48 0.47 0.46 0.56 0.68 0.68 0.52 0.44 0.51 0.77 0.67 0.54 0.46 0.46 0.67 0.90 0.91 0.92 0.89 0.90 0.95 0.96 1.02 0.87 0.79 0.79 0.74
0.39 0.89 1.01 0.87 0.82 0.87 0.61 0.68 0.73 0.80 0.80 0.75 0.92 1.04 1.17 1.09 0.93 1.02 0.73 0.50 0.43 0.42 0.55 0.71 0.73 1.00 1.06 1.12 1.08 0.85 0.81 0.96
0.16 0.34 0.52 0.91 0.43 0.63 0.46 0.44 0.65 0.85 1.07 1.22 1.22 1.16 1.17 1.26 1.06 0.81 0.68 0.61 0.54 0.50 0.55 0.56 0.57 0.73 1.01 1.05 1.08 0.98 1.04 1.06
0.15 0.18 0.19 0.24 0.40 0.80 1.29 0.47 0.62 0.71 0.77 0.77 0.84 1.04 0.98 0.90 0.85 0.74 0.57 0.57 0.50 0.47 0.40 0.41 0.42 0.47 0.69 0.94 1.02 1.03 0.77 0.73
0.16 0.25 0.32 0.34 0.34 0.27 0.36 0.28 0.62 1.11 0.66 0.54 0.68 0.70 0.76 0.78 0.75 0.54 0.47 0.40 0.34 0.34 0.27 0.24 0.32 0.44 0.62 0.68 0.70 0.76 0.79 0.70
0.17 0.24 0.30 0.37 0.48 0.60 0.59 0.45 0.51 0.76 0.97 0.86 0.57 0.82 0.82 0.66 0.67 0.58 0.44 0.46 0.41 0.38 0.37 0.44 0.52 0.49 0.60 0.52 0.68 0.94 0.92 0.91
0.18 0.24 0.27 0.34 0.37 0.32 0.36 0.42 0.46 0.44 0.80 1.37 1.11 1.04 1.42 1.04 0.70 0.73 0.58 0.68 0.66 0.62 0.70 0.66 0.48 0.28 0.52 0.45 0.57 0.66 1.03 0.97
0.21 0.20 0.26 0.29 0.26 0.22 0.20 0.20 0.28 0.35 0.32 0.67 1.18 1.19 1.40 1.61 1.39 0.99 1.02 0.92 0.95 0.75 0.66 0.54 0.45 0.49 0.57 0.48 0.60 0.39 0.52 0.73

GFSFLT1_prec_precacc_117.txt.gz
Total_Precipitation_Accumulation
0.03 0.08 0.04 0.04 0.17 0.43 0.85 0.92 1.07 1.07 0.77 0.64 0.61 0.71 0.75 0.78 0.68 0.47 0.57 0.55 0.35 0.22 0.31 0.60 0.54 0.46 0.33 0.23 0.40 0.49 0.39 0.44
0.04 0.07 0.08 0.06 0.12 0.37 0.48 0.71 0.88 0.60 0.38 0.33 0.37 0.42 0.50 0.78 0.77 0.49 0.53 0.68 0.50 0.32 0.25 0.43 0.81 0.63 0.40 0.23 0.33 0.51 0.61 0.44
0.01 0.03 0.05 0.08 0.16 0.38 0.47 0.32 0.27 0.28 0.28 0.16 0.12 0.17 0.29 0.63 0.92 0.60 0.63 0.69 0.59 0.51 0.26 0.21 0.41 0.70 0.73 0.39 0.29 0.48 0.54 0.51
0.02 0.04 0.04 0.06 0.08 0.12 0.24 0.13 0.07 0.07 0.10 0.13 0.11 0.16 0.32 1.03 1.33 0.98 0.70 0.69 0.61 0.60 0.47 0.37 0.32 0.52 0.66 0.59 0.32 0.27 0.59 0.53
0.00 0.00 0.00 0.03 0.03 0.05 0.23 0.13 0.06 0.05 0.05 0.05 0.07 0.11 0.16 0.50 1.03 0.94 0.73 0.92 0.77 0.56 0.67 0.67 0.45 0.41 0.52 0.52 0.40 0.34 0.77 0.63
0.01 0.01 0.00 0.00 0.06 0.08 0.20 0.16 0.16 0.08 0.11 0.15 0.26 0.20 0.14 0.23 0.89 1.22 0.97 0.97 1.04 0.88 0.75 0.81 0.65 0.49 0.55 0.74 0.63 0.57 0.75 0.52
0.04 0.02 0.02 0.02 0.02 0.11 0.19 0.15 0.21 0.23 0.27 0.22 0.22 0.29 0.18 0.18 0.51 1.07 1.35 1.18 1.19 1.14 1.07 0.96 0.77 0.60 0.54 0.67 0.75 0.84 0.81 0.74
0.09 0.06 0.06 0.07 0.05 0.17 0.19 0.16 0.20 0.23 0.30 0.16 0.19 0.31 0.39 0.41 0.43 0.79 1.29 1.57 1.38 0.92 0.91 0.89 0.81 0.64 0.59 0.57 0.67 0.61 0.63 0.59
0.16 0.16 0.18 0.21 0.20 0.22 0.34 0.30 0.36 0.28 0.19 0.25 0.31 0.37 0.44 0.54 0.46 0.67 1.19 1.09 0.92 0.68 0.84 0.98 0.93 0.84 0.75 0.58 0.60 0.55 0.52 0.52
0.19 0.20 0.24 0.28 0.30 0.29 0.31 0.28 0.48 0.47 0.42 0.47 0.40 0.33 0.30 0.35 0.40 0.38 0.62 0.81 0.89 0.79 0.91 0.95 0.95 0.85 0.78 0.74 0.64 0.60 0.57 0.54
0.27 0.27 0.31 0.32 0.33 0.34 0.47 0.32 0.25 0.39 0.57 0.56 0.36 0.41 0.49 0.34 0.32 0.33 0.48 0.76 0.85 0.91 0.92 0.87 0.89 0.93 0.92 0.85 0.77 0.71 0.68 0.61
0.53 0.61 0.51 0.56 0.53 0.49 0.47 0.50 0.60 0.70 0.69 0.54 0.46 0.53 0.78 0.72 0.61 0.53 0.54 0.85 1.08 1.01 0.97 0.90 0.91 0.97 0.98 1.06 0.90 0.84 0.87 0.78
0.40 0.92 1.05 0.95 0.91 0.95 0.67 0.76 0.90 1.02 0.88 0.79 0.99 1.13 1.22 1.16 1.12 1.24 0.96 0.71 0.66 0.58 0.69 0.79 0.75 1.02 1.10 1.16 1.12 0.94 0.94 1.06
0.16 0.35 0.60 1.07 0.58 0.85 0.69 0.68 0.94 1.11 1.14 1.28 1.32 1.26 1.26 1.33 1.27 1.10 0.86 0.82 0.82 0.76 0.82 0.81 0.69 0.83 1.13 1.18 1.20 1.12 1.20 1.23
0.17 0.21 0.25 0.32 0.48 1.01 1.76 0.74 0.90 1.05 0.90 0.81 0.89 1.12 1.08 1.06 0.99 0.89 0.73 0.74 0.71 0.70 0.55 0.49 0.49 0.52 0.72 0.98 1.08 1.11 0.82 0.79
0.20 0.29 0.36 0.39 0.42 0.38 0.50 0.46 0.94 1.41 1.10 0.73 0.76 0.78 0.84 0.96 0.94 0.70 0.63 0.59 0.55 0.54 0.46 0.40 0.45 0.52 0.70 0.76 0.77 0.82 0.85 0.75
0.19 0.26 0.32 0.39 0.51 0.66 0.63 0.51 0.66 0.89 1.21 1.30 0.75 1.00 0.94 0.72 0.76 0.69 0.54 0.58 0.52 0.49 0.46 0.54 0.65 0.62 0.76 0.66 0.78 0.98 0.95 0.94
0.20 0.26 0.29 0.36 0.39 0.33 0.39 0.47 0.56 0.56 0.91 1.70 1.56 1.41 1.98 1.32 0.83 0.94 0.72 0.78 0.75 0.72 0.78 0.71 0.53 0.35 0.63 0.58 0.72 0.74 1.07 1.00
0.22 0.20 0.26 0.29 0.26 0.22 0.20 0.20 0.29 0.38 0.36 0.74 1.36 1.35 1.80 2.35 1.69 1.45 1.52 1.31 1.15 0.89 0.76 0.60 0.51 0.61 0.72 0.68 0.87 0.65 0.69 0.78

GFSFLT1_prec_precacc_123.txt.gz
Total_Precipitation_Accumulation
0.03 0.08 0.04 0.04 0.17 0.43 0.85 0.92 1.07 1.07 0.77 0.64 0.61 0.71 0.78 0.83 0.75 0.70 0.84 0.78 0.51 0.37 0.36 0.63 0.55 0.47 0.33 0.23 0.40 0.50 0.40 0.46
0.04 0.07 0.08 0.06 0.12 0.37 0.48 0.71 0.88 0.60 0.38 0.33 0.37 0.42 0.50 0.83 0.84 0.54 0.74 0.88 0.73 0.45 0.32 0.47 0.85 0.66 0.40 0.24 0.34 0.52 0.62 0.46
0.01 0.03 0.05 0.08 0.16 0.38 0.47 0.32 0.27 0.28 0.28 0.16 0.12 0.17 0.29 0.63 0.95 0.69 0.72 0.78 0.70 0.70 0.42 0.29 0.44 0.74 0.75 0.40 0.30 0.49 0.55 0.52
0.02 0.04 0.04 0.06 0.08 0.12 0.24 0.13 0.07 0.07 0.10 0.13 0.11 0.16 0.32 1.03 1.33 1.00 0.74 0.78 0.75 0.75 0.60 0.49 0.40 0.55 0.68 0.59 0.33 0.29 0.62 0.56
0.00 0.00 0.00 0.03 0.03 0.05 0.23 0.13 0.06 0.05 0.05 0.05 0.07 0.11 0.16 0.50 1.03 0.94 0.74 1.02 0.95 0.80 0.90 0.85 0.67 0.52 0.56 0.53 0.43 0.40 0.83 0.64
0.01 0.01 0.00 0.00 0.06 0.08 0.20 0.16 0.16 0.08 0.11 0.15 0.26 0.20 0.14 0.23 0.89 1.22 0.98 0.99 1.17 1.18 1.12 1.20 1.07 1.05 0.80 0.98 0.70 0.65 0.79 0.53
0.04 0.02 0.02 0.02 0.02 0.11 0.19 0.15 0.21 0.23 0.27 0.22 0.22 0.29 0.18 0.18 0.51 1.07 1.37 1.22 1.23 1.22 1.19 1.17 1.03 0.98 0.98 1.22 1.41 1.20 1.10 0.90
0.09 0.06 0.06 0.07 0.05 0.17 0.19 0.16 0.20 0.23 0.30 0.16 0.19 0.31 0.39 0.41 0.43 0.79 1.30 1.62 1.44 0.94 1.03 1.02 0.93 0.74 0.79 0.98 1.29 1.28 1.39 0.94
0.16 0.16 0.18 0.21 0.20 0.22 0.34 0.30 0.36 0.28 0.19 0.25 0.31 0.37 0.45 0.54 0.46 0.67 1.19 1.12 0.95 0.73 0.90 1.06 1.03 1.01 1.00 0.88 0.96 0.85 0.82 0.82
0.19 0.21 0.24 0.28 0.30 0.29 0.32 0.29 0.48 0.47 0.42 0.47 0.40 0.33 0.30 0.35 0.40 0.39 0.62 0.81 0.94 0.88 1.01 1.06 1.10 1.01 1.00 0.99 0.90 0.84 0.77 0.78
0.27 0.27 0.31 0.32 0.33 0.35 0.47 0.32 0.26 0.39 0.57 0.56 0.36 0.41 0.49 0.35 0.32 0.33 0.48 0.76 0.88 1.07 1.18 1.12 1.15 1.17 1.19 1.17 1.07 0.95 0.88 0.77
0.53 0.61 0.51 0.57 0.56 0.51 0.50 0.52 0.62 0.71 0.71 0.56 0.48 0.54 0.79 0.73 0.62 0.54 0.55 0.86 1.12 1.09 1.16 1.38 1.27 1.40 1.41 1.40 1.28 1.15 1.10 0.97
0.41 0.95 1.10 1.04 1.01 1.05 0.78 0.83 0.96 1.07 0.93 0.81 1.01 1.17 1.26 1.21 1.17 1.30 1.06 0.83 0.82 0.78 0.93 1.06 1.02 1.23 1.41 1.40 1.28 1.13 1.13 1.19
0.20 0.43 0.70 1.21 0.71 1.03 0.88 0.88 1.14 1.38 1.42 1.41 1.43 1.37 1.38 1.43 1.38 1.24 1.11 1.17 1.21 1.21 1.36 1.41 1.20 1.11 1.35 1.41 1.39 1.23 1.25 1.30
0.23 0.28 0.34 0.43 0.64 1.19 1.92 0.92 1.12 1.41 1.43 1.13 1.09 1.30 1.22 1.20 1.12 0.99 0.91 0.97 0.97 1.04 0.91 0.87 0.88 0.91 1.01 1.21 1.38 1.46 1.11 1.10
0.28 0.37 0.45 0.47 0.47 0.44 0.60 0.58 1.12 1.67 1.51 1.30 1.35 1.14 1.02 1.09 1.06 0.82 0.71 0.84 0.88 0.81 0.66 0.77 0.84 0.93 1.15 1.11 1.18 1.35 1.30 1.11
0.25 0.31 0.34 0.41 0.53 0.68 0.67 0.60 0.84 1.09 1.45 1.73 1.28 1.60 1.48 0.98 0.89 0.83 0.80 0.83 0.90 1.02 0.78 0.88 1.18 1.23 1.59 1.54 1.42 1.44 1.32 1.28
0.20 0.26 0.30 0.37 0.40 0.33 0.39 0.49 0.60 0.62 0.99 1.85 1.87 1.91 2.66 1.81 1.04 1.08 0.98 1.19 1.12 1.07 1.19 1.09 0.93 0.82 1.30 1.40 1.56 1.37 1.52 1.38
0.22 0.20 0.26 0.30 0.26 0.22 0.20 0.20 0.29 0.38 0.36 0.76 1.39 1.44 2.05 2.85 2.19 1.84 1.88 1.55 1.44 1.09 1.01 0.90 0.80 1.13 1.16 1.48 1.82 1.48 1.21 1.22

GFSFLT1_prec_precacc_129.txt.gz
Total_Precipitation_Accumulation
0.03 0.08 0.04 0.04 0.17 0.43 0.85 0.92 1.07 1.07 0.77 0.64 0.61 0.71 0.78 0.83 0.76 0.77 0.97 1.08 1.05 1.14 1.35 1.46 1.25 1.00 0.63 0.42 0.49 0.59 0.45 0.47
0.04 0.07 0.08 0.06 0.12 0.37 0.48 0.71 0.88 0.60 0.38 0.33 0.37 0.42 0.50 0.83 0.84 0.55 0.77 0.98 0.94 0.84 1.13 1.97 2.12 1.29 0.84 0.68 0.69 0.73 0.80 0.62
0.01 0.03 0.05 0.08 0.16 0.38 0.47 0.32 0.27 0.28 0.28 0.16 0.12 0.17 0.29 0.63 0.95 0.69 0.72 0.81 0.76 0.88 0.69 0.82 1.39 1.67 1.41 0.92 0.81 1.01 0.96 0.95
0.02 0.04 0.04 0.06 0.08 0.12 0.24 0.13 0.07 0.07 0.10 0.13 0.11 0.16 0.32 1.03 1.33 1.00 0.74 0.78 0.75 0.79 0.74 0.67 0.81 1.47 1.50 1.06 0.65 0.69 0.98 0.94
0.00 0.00 0.00 0.03 0.03 0.05 0.23 0.13 0.06 0.05 0.05 0.05 0.07 0.11 0.16 0.50 1.03 0.94 0.74 1.02 0.95 0.80 0.92 0.96 0.82 0.80 1.14 1.06 0.78 0.66 1.14 0.90
0.01 0.01 0.00 0.00 0.06 0.08 0.20 0.16 0.16 0.08 0.11 0.15 0.26 0.20 0.14 0.23 0.89 1.22 0.98 0.99 1.17 1.18 1.12 1.24 1.22 1.28 0.95 1.42 1.27 1.12 1.20 0.89
0.04 0.02 0.02 0.02 0.02 0.11 0.19 0.15 0.21 0.23 0.27 0.22 0.22 0.29 0.18 0.18 0.51 1.07 1.37 1.22 1.23 1.22 1.19 1.17 1.05 1.09 1.22 1.43 1.76 1.72 1.70 1.39
0.09 0.06 0.06 0.07 0.05 0.17 0.19 0.16 0.20 0.23 0.30 0.16 0.19 0.31 0.39 0.41 0.43 0.79 1.30 1.62 1.44 0.94 1.03 1.02 0.93 0.75 0.85 1.15 1.56 1.74 2.06 2.03
0.16 0.16 0.18 0.21 0.20 0.22 0.34 0.30 0.37 0.28 0.19 0.25 0.31 0.37 0.45 0.54 0.46 0.67 1.19 1.12 0.95 0.73 0.90 1.06 1.03 1.02 1.02 0.93 1.07 1.10 1.17 1.54
0.19 0.21 0.24 0.28 0.30 0.29 0.33 0.30 0.49 0.48 0.43 0.47 0.41 0.34 0.31 0.36 0.41 0.39 0.62 0.82 0.94 0.88 1.01 1.06 1.10 1.01 1.01 1.00 0.92 0.96 0.98 0.99
0.27 0.27 0.31 0.32 0.34 0.35 0.49 0.34 0.29 0.44 0.60 0.58 0.39 0.43 0.51 0.37 0.35 0.35 0.50 0.78 0.90 1.08 1.19 1.13 1.15 1.17 1.19 1.17 1.08 1.00 1.08 0.96
0.53 0.61 0.51 0.57 0.56 0.54 0.63 0.71 0.79 0.79 0.72 0.57 0.50 0.59 0.84 0.77 0.65 0.58 0.60 0.90 1.15 1.11 1.18 1.39 1.28 1.41 1.42 1.41 1.29 1.15 1.14 1.13
0.41 0.95 1.10 1.05 1.05 1.18 0.99 0.91 1.01 1.09 0.95 0.83 1.06 1.25 1.33 1.26 1.24 1.37 1.11 0.88 0.85 0.81 0.96 1.09 1.04 1.23 1.42 1.41 1.28 1.14 1.15 1.34
0.21 0.43 0.71 1.25 0.78 1.10 0.92 0.93 1.18 1.40 1.45 1.48 1.52 1.50 1.50 1.55 1.47 1.32 1.17 1.21 1.25 1.24 1.39 1.45 1.22 1.12 1.36 1.42 1.40 1.24 1.25 1.35
0.25 0.29 0.36 0.46 0.68 1.23 1.98 1.00 1.21 1.45 1.51 1.24 1.23 1.54 1.49 1.41 1.26 1.10 0.97 1.01 1.00 1.09 0.96 0.92 0.92 0.93 1.04 1.24 1.41 1.49 1.15 1.14
0.29 0.39 0.47 0.48 0.49 0.47 0.63 0.62 1.19 1.73 1.58 1.41 1.57 1.41 1.31 1.33 1.24 0.95 0.80 0.94 0.97 0.91 0.75 0.82 0.89 0.97 1.21 1.17 1.23 1.39 1.34 1.14
0.25 0.31 0.36 0.42 0.53 0.68 0.67 0.60 0.84 1.10 1.47 1.79 1.35 1.69 1.65 1.20 1.13 0.99 0.95 0.97 1.04 1.23 1.03 1.07 1.33 1.34 1.66 1.62 1.51 1.58 1.49 1.37
0.20 0.26 0.30 0.37 0.40 0.33 0.39 0.49 0.60 0.62 0.99 1.86 1.87 1.92 2.69 1.89 1.15 1.16 1.09 1.43 1.40 1.29 1.50 1.43 1.32 1.26 1.66 1.63 1.77 1.58 1.94 1.83
0.22 0.20 0.26 0.30 0.26 0.22 0.20 0.20 0.29 0.38 0.36 0.76 1.39 1.44 2.05 2.85 2.20 1.85 1.90 1.57 1.49 1.21 1.19 1.16 1.13 1.71 1.78 2.11 2.37 2.00 1.72 1.78

GFSFLT1_prec_precacc_132.txt.gz
Total_Precipitation_Accumulation
0.03 0.08 0.04 0.04 0.17 0.43 0.85 0.92 1.07 1.07 0.77 0.64 0.61 0.71 0.78 0.83 0.76 0.77 0.97 1.08 1.05 1.14 1.36 1.60 1.59 1.46 1.19 0.96 0.84 0.75 0.59 0.62
0.04 0.07 0.08 0.06 0.12 0.37 0.48 0.71 0.88 0.60 0.38 0.33 0.37 0.42 0.50 0.83 0.84 0.55 0.77 0.98 0.94 0.84 1.13 1.97 2.14 1.36 0.90 0.94 1.19 1.13 1.03 0.87
0.01 0.03 0.05 0.08 0.16 0.38 0.47 0.32 0.27 0.28 0.28 0.16 0.12 0.17 0.29 0.63 0.95 0.69 0.72 0.81 0.76 0.88 0.69 0.82 1.40 1.71 1.55 1.09 1.08 1.34 1.23 1.17
0.02 0.04 0.04 0.06 0.08 0.12 0.24 0.13 0.07 0.07 0.10 0.13 0.11 0.16 0.32 1.03 1.33 1.00 0.74 0.78 0.75 0.79 0.74 0.67 0.81 1.47 1.54 1.17 0.82 0.93 1.32 1.28
0.00 0.00 0.00 0.03 0.03 0.05 0.23 0.13 0.06 0.05 0.05 0.05 0.07 0.11 0.16 0.50 1.03 0.94 0.74 1.02 0.95 0.80 0.92 0.96 0.82 0.80 1.14 1.13 0.91 0.83 1.29 1.18
0.01 0.01 0.00 0.00 0.06 0.08 0.20 0.16 0.16 0.08 0.11 0.15 0.26 0.20 0.14 0.23 0.89 1.22 0.98 0.99 1.17 1.18 1.12 1.24 1.22 1.28 0.95 1.44 1.35 1.24 1.35 1.02
0.04 0.02 0.02 0.02 0.02 0.11 0.19 0.15 0.21 0.23 0.27 0.22 0.22 0.29 0.18 0.18 0.51 1.07 1.37 1.22 1.23 1.22 1.19 1.17 1.05 1.09 1.22 1.43 1.77 1.74 1.75 1.51
0.09 0.06 0.06 0.07 0.05 0.17 0.19 0.16 0.20 0.23 0.30 0.16 0.19 0.31 0.39 0.41 0.43 0.79 1.30 1.62 1.44 0.94 1.03 1.02 0.93 0.75 0.85 1.15 1.57 1.75 2.09 2.16
0.16 0.16 0.18 0.21 0.20 0.22 0.34 0.30 0.37 0.28 0.19 0.25 0.31 0.37 0.46 0.55 0.47 0.68 1.20 1.12 0.96 0.74 0.91 1.06 1.03 1.02 1.02 0.93 1.07 1.10 1.18 1.55
0.19 0.21 0.24 0.28 0.30 0.29 0.33 0.30 0.49 0.48 0.43 0.47 0.41 0.34 0.32 0.37 0.42 0.40 0.63 0.83 0.95 0.89 1.02 1.07 1.11 1.02 1.01 1.00 0.92 0.96 0.98 0.99
0.27 0.27 0.31 0.32 0.34 0.35 0.49 0.34 0.29 0.45 0.60 0.58 0.39 0.44 0.53 0.39 0.36 0.37 0.52 0.80 0.92 1.10 1.21 1.14 1.17 1.18 1.20 1.18 1.09 1.00 1.08 0.96
0.53 0.61 0.51 0.57 0.56 0.54 0.64 0.72 0.79 0.79 0.72 0.57 0.51 0.61 0.90 0.82 0.71 0.63 0.64 0.94 1.19 1.15 1.21 1.42 1.31 1.43 1.43 1.42 1.29 1.16 1.14 1.13
0.41 0.95 1.10 1.05 1.05 1.18 1.01 0.92 1.01 1.09 0.96 0.86 1.11 1.32 1.44 1.35 1.34 1.44 1.16 0.93 0.91 0.85 0.99 1.11 1.07 1.26 1.44 1.43 1.30 1.15 1.16 1.35
0.21 0.43 0.71 1.25 0.78 1.11 0.93 0.93 1.18 1.40 1.47 1.56 1.63 1.62 1.60 1.65 1.56 1.40 1.22 1.25 1.29 1.28 1.42 1.47 1.24 1.14 1.37 1.43 1.41 1.25 1.27 1.36
0.25 0.29 0.36 0.46 0.68 1.23 1.99 1.00 1.21 1.45 1.52 1.29 1.32 1.66 1.65 1.59 1.41 1.20 1.00 1.03 1.02 1.10 0.98 0.94 0.94 0.94 1.05 1.25 1.43 1.52 1.18 1.18
0.29 0.39 0.47 0.49 0.50 0.48 0.63 0.62 1.19 1.73 1.58 1.41 1.60 1.47 1.39 1.40 1.32 1.00 0.82 0.95 0.99 0.92 0.76 0.83 0.90 0.99 1.24 1.18 1.24 1.42 1.39 1.21
0.25 0.31 0.36 0.42 0.53 0.68 0.67 0.60 0.84 1.10 1.47 1.79 1.35 1.69 1.65 1.20 1.13 0.99 0.95 0.97 1.04 1.23 1.03 1.08 1.35 1.38 1.71 1.67 1.55 1.61 1.53 1.43
0.20 0.26 0.30 0.37 0.40 0.33 0.39 0.49 0.60 0.62 0.99 1.86 1.87 1.92 2.69 1.89 1.15 1.16 1.09 1.43 1.40 1.29 1.51 1.43 1.33 1.29 1.72 1.74 1.86 1.64 1.97 1.87
0.22 0.20 0.26 0.30 0.26 0.22 0.20 0.20 0.29 0.38 0.36 0.76 1.39 1.44 2.05 2.85 2.20 1.85 1.90 1.58 1.49 1.22 1.19 1.16 1.13 1.71 1.79 2.15 2.44 2.10 1.81 1.85